Date String (YYYY-MM-DD hh:mm:ss) UTC,Instrument flags,Ambient pressure (hPa),Sample flow (lpm),Bypass flow (lpm),Sample temperature (°C),Ambient temperature (°C),ASC tube jacket temperature (°C),LED temperature (°C),Box temperature (°C),Sample RH (%),Span deviation,Mass concentration (μg/m³),Mass concentration (μg/m³),Mass concentration (μg/m³)
DateTimeUTC,F1_M11,P_M11,Q1_M11,Q2_M11,T1_M11,T2_M11,T3_M11,T4_M11,T5_M11,U1_M11,ZSPAN_M11,X0_M11,X2_M11,X1_M11
2022-09-25 11:00:00,,0835.4,5.01,0.00,29.9,28.2,00.0,38.7,31.7,14.0,0001.5,0011.30,0006.19,0005.72
2022-09-25 11:01:00,,0835.5,4.99,0.00,29.9,28.2,00.0,38.7,31.7,14.0,0001.9,0011.57,0006.20,0005.75
2022-09-25 11:02:00,,0835.5,5.00,0.00,29.9,28.2,00.0,38.7,31.7,14.0,0002.5,0011.57,0006.19,0005.75
2022-09-25 11:03:00,,0835.5,5.01,0.00,29.9,28.2,00.0,38.7,31.7,14.5,0001.1,0011.23,0006.21,0005.75
2022-09-25 11:04:00,,0835.5,4.99,0.00,29.9,28.2,00.0,38.7,31.7,14.7,0000.0,0010.85,0006.23,0005.76
2022-09-25 11:05:00,,0835.5,5.00,0.00,29.9,28.2,00.0,38.7,31.7,14.3,0000.0,0010.59,0006.22,0005.75
2022-09-25 11:06:00,,0835.4,5.00,0.00,29.9,28.2,00.0,38.7,31.7,14.3,0000.0,0011.00,0006.23,0005.76
2022-09-25 11:07:00,,0835.5,4.99,0.00,29.9,28.1,00.0,38.7,31.7,14.5,0000.0,0010.97,0006.27,0005.76
2022-09-25 11:08:00,,0835.5,4.99,0.00,29.9,28.1,00.0,38.7,31.7,14.6,0000.0,0010.90,0006.28,0005.77
2022-09-25 11:09:00,,0835.5,5.01,0.00,29.9,28.1,00.0,38.7,31.6,14.7,0000.0,0010.91,0006.28,0005.77
2022-09-25 11:10:00,,0835.5,4.99,0.00,29.8,28.1,00.0,38.7,31.6,14.8,0000.8,0011.54,0006.27,0005.78
2022-09-25 11:11:00,,0835.5,4.99,0.00,29.8,28.1,00.0,38.7,31.6,14.8,0002.8,0011.41,0006.30,0005.80
2022-09-25 11:12:00,,0835.5,5.01,0.00,29.8,28.1,00.0,38.7,31.6,14.9,0002.3,0011.40,0006.34,0005.80
2022-09-25 11:13:00,,0835.5,4.99,0.00,29.8,28.1,00.0,38.7,31.6,14.9,0001.4,0011.59,0006.39,0005.81
2022-09-25 11:14:00,,0835.5,5.00,0.00,29.8,28.1,00.0,38.7,31.6,14.8,0002.1,0012.14,0006.40,0005.81
2022-09-25 11:15:00,,0835.5,5.00,0.00,29.8,28.1,00.0,38.7,31.7,14.8,0002.1,0012.19,0006.40,0005.80
2022-09-25 11:16:00,,0835.5,4.99,0.00,29.8,28.1,00.0,38.6,31.6,14.7,0001.9,0012.36,0006.48,0005.82
2022-09-25 11:17:00,,0835.5,5.00,0.00,29.8,28.1,00.0,38.6,31.6,14.7,0001.9,0012.03,0006.51,0005.83
2022-09-25 11:18:00,,0835.5,4.99,0.00,29.8,28.1,00.0,38.6,31.6,14.7,0002.3,0011.95,0006.49,0005.82
2022-09-25 11:19:00,,0835.5,4.99,0.00,29.8,28.1,00.0,38.6,31.6,14.7,0001.6,0011.87,0006.46,0005.83
2022-09-25 11:20:00,,0835.5,5.02,0.00,29.8,28.1,00.0,38.6,31.6,14.7,0000.9,0012.41,0006.45,0005.84
2022-09-25 11:21:00,,0835.5,4.99,0.00,29.8,28.1,00.0,38.6,31.6,14.7,0000.6,0012.03,0006.47,0005.84
2022-09-25 11:22:00,,0835.5,5.00,0.00,29.8,28.1,00.0,38.6,31.6,14.7,0000.2,0011.66,0006.46,0005.84
2022-09-25 11:23:00,,0835.6,5.00,0.00,29.8,28.1,00.0,38.6,31.6,14.7,0001.0,0011.43,0006.43,0005.83
2022-09-25 11:24:00,,0835.5,4.99,0.00,29.8,28.1,00.0,38.6,31.6,14.7,0000.7,0011.00,0006.42,0005.83
2022-09-25 11:25:00,,0835.5,5.01,0.00,29.8,28.1,00.0,38.6,31.6,14.7,0000.8,0010.81,0006.41,0005.83
2022-09-25 11:26:00,,0835.5,4.99,0.00,29.8,28.1,00.0,38.6,31.6,14.7,0000.1,0011.27,0006.41,0005.84
2022-09-25 11:27:00,,0835.5,5.01,0.00,29.8,28.1,00.0,38.6,31.6,14.8,-000.3,0011.36,0006.38,0005.84
2022-09-25 11:28:00,,0835.5,5.00,0.00,29.8,28.1,00.0,38.6,31.6,14.8,-000.1,0011.87,0006.36,0005.84
2022-09-25 11:29:00,,0835.5,5.00,0.00,29.8,28.1,00.0,38.6,31.6,14.7,-000.2,0012.10,0006.38,0005.85
2022-09-25 11:30:00,,0835.5,5.00,0.00,29.8,28.1,00.0,38.6,31.6,14.7,0000.7,0012.18,0006.40,0005.84
2022-09-25 11:31:00,,0835.5,4.99,0.00,29.8,28.1,00.0,38.6,31.6,14.7,0001.0,0011.64,0006.39,0005.83
2022-09-25 11:32:00,,0835.5,5.00,0.00,29.8,28.1,00.0,38.6,31.6,14.7,0000.0,0011.52,0006.34,0005.81
2022-09-25 11:33:00,,0835.5,5.01,0.00,29.8,28.1,00.0,38.6,31.6,14.7,0000.6,0011.58,0006.36,0005.82
2022-09-25 11:34:00,,0835.5,4.99,0.00,29.8,28.1,00.0,38.6,31.6,14.7,0001.5,0012.24,0006.36,0005.81
2022-09-25 11:35:00,,0835.5,5.01,0.00,29.8,28.1,00.0,38.6,31.6,14.7,0001.8,0012.03,0006.35,0005.82
2022-09-25 11:36:00,,0835.6,5.00,0.00,29.7,28.1,00.0,38.6,31.6,14.8,0001.9,0011.71,0006.37,0005.83
2022-09-25 11:37:00,,0835.5,4.99,0.00,29.8,28.1,00.0,38.6,31.6,14.8,0002.1,0011.18,0006.37,0005.83
2022-09-25 11:38:00,,0835.5,5.00,0.00,29.7,28.0,00.0,38.6,31.6,14.8,0002.4,0011.13,0006.39,0005.83
2022-09-25 11:39:00,,0835.5,4.99,0.00,29.7,28.1,00.0,38.6,31.6,14.8,0002.7,0010.65,0006.40,0005.83
2022-09-25 11:40:00,,0835.5,5.01,0.00,29.7,28.0,00.0,38.6,31.6,14.8,0002.6,0010.71,0006.38,0005.82
2022-09-25 11:41:00,,0835.5,4.99,0.00,29.7,28.0,00.0,38.5,31.5,14.8,0002.2,0010.64,0006.36,0005.84
2022-09-25 11:42:00,,0835.5,5.01,0.00,29.7,28.0,00.0,38.5,31.5,14.8,0002.2,0010.71,0006.39,0005.85
2022-09-25 11:43:00,,0835.5,4.99,0.00,29.7,28.0,00.0,38.6,31.5,14.8,0002.5,0010.89,0006.44,0005.86
2022-09-25 11:44:00,,0835.5,5.00,0.00,29.7,28.0,00.0,38.5,31.5,14.8,0002.1,0011.05,0006.42,0005.86
2022-09-25 11:45:00,,0835.5,5.00,0.00,29.7,28.1,00.0,38.5,31.5,14.8,0001.8,0010.67,0006.41,0005.85
2022-09-25 11:46:00,,0835.5,5.00,0.00,29.7,28.0,00.0,38.5,31.5,14.8,0001.1,0010.64,0006.40,0005.86
2022-09-25 11:47:00,,0835.5,4.99,0.00,29.7,28.0,00.0,38.5,31.5,14.8,0002.4,0010.43,0006.38,0005.86
2022-09-25 11:48:00,,0835.5,5.00,0.00,29.7,28.0,00.0,38.5,31.5,14.9,0002.3,0010.35,0006.36,0005.86
2022-09-25 11:49:00,,0835.5,5.01,0.00,29.7,28.0,00.0,38.5,31.5,14.9,0001.8,0010.19,0006.33,0005.86
2022-09-25 11:50:00,,0835.5,4.99,0.00,29.7,28.0,00.0,38.5,31.5,14.9,0001.2,0010.16,0006.32,0005.86
2022-09-25 11:51:00,,0835.5,5.01,0.00,29.7,28.0,00.0,38.5,31.5,14.8,0000.0,0010.08,0006.31,0005.85
2022-09-25 11:52:00,,0835.6,4.99,0.00,29.7,28.0,00.0,38.5,31.5,14.8,0001.6,0010.48,0006.31,0005.84
2022-09-25 11:53:00,,0835.5,5.01,0.00,29.7,28.0,00.0,38.5,31.5,14.8,0001.6,0010.55,0006.28,0005.82
2022-09-25 11:54:00,,0835.5,4.99,0.00,29.7,28.0,00.0,38.5,31.5,14.8,0001.3,0010.39,0006.25,0005.82
2022-09-25 11:55:00,,0835.6,5.00,0.00,29.7,27.9,00.0,38.5,31.5,14.8,0001.2,0010.20,0006.26,0005.82
2022-09-25 11:56:00,,0835.6,5.01,0.00,29.7,27.9,00.0,38.5,31.5,14.8,0001.0,0010.11,0006.28,0005.83
2022-09-25 11:57:00,,0835.5,5.00,0.00,29.6,27.9,00.0,38.5,31.5,14.8,0000.2,0010.53,0006.32,0005.84
2022-09-25 11:58:00,,0835.5,5.01,0.00,29.6,27.9,00.0,38.5,31.4,14.8,0000.6,0010.61,0006.35,0005.84
2022-09-25 11:59:00,,0835.6,5.00,0.00,29.6,27.9,00.0,38.5,31.4,14.9,0001.0,0011.31,0006.39,0005.85
